Wind_Speed
14 15 14 15 15 15 14 14 12 11 12 12 12 14 11 6 3 3 4 4 5 10 12 11 13 17 19 20 23 25 27 29 29 28 26 25 23 22 23 25 26 26 25 24 26 27 28 28 28 29 30 30 31 31 31 31 30 28 27 26 25 25 25 25 25 25 25 26 26 25 25 25 24 23
15 15 16 16 16 15 15 15 14 12 12 12 13 14 14 11 9 6 5 5 8 10 9 9 12 15 16 18 21 23 24 26 28 27 26 24 23 21 22 23 24 24 24 24 23 24 25 26 27 27 28 29 30 31 31 32 31 29 27 26 26 25 25 25 24 24 25 25 25 25 24 24 23 22
15 15 15 16 16 16 16 16 17 16 15 15 15 15 15 15 16 14 8 5 8 11 10 9 12 13 14 16 20 22 21 22 24 25 24 24 23 22 22 22 22 22 23 22 21 21 22 24 25 26 27 27 28 30 30 30 29 28 27 26 26 25 25 25 25 25 24 23 23 23 23 23 22 22
15 15 15 16 17 17 17 17 17 17 17 18 20 19 18 17 17 17 12 6 9 15 15 13 13 13 12 14 17 20 20 20 22 23 24 24 24 24 23 23 23 22 21 21 21 20 21 22 23 24 25 26 27 28 29 29 28 28 28 27 26 26 26 26 26 25 24 23 23 23 23 23 22 22
15 15 16 16 17 17 17 17 17 17 18 18 18 19 19 19 18 17 14 9 8 16 18 15 15 14 12 14 16 18 19 19 20 21 23 24 24 24 23 24 24 22 21 21 21 21 21 22 23 23 24 25 26 27 28 29 29 29 29 28 27 27 26 27 27 26 25 24 24 24 23 23 22 22
15 16 16 16 16 17 18 18 17 18 19 18 18 18 18 19 20 19 18 13 9 12 16 16 15 14 13 13 16 17 18 19 20 20 21 22 23 25 25 24 23 22 22 22 23 23 22 21 22 22 23 23 24 26 26 28 29 30 30 30 29 28 28 28 28 28 27 26 25 25 24 24 23 23
16 17 17 17 16 16 17 18 18 18 19 18 18 19 19 18 16 16 18 16 13 11 15 16 15 14 14 14 16 17 18 19 21 21 22 22 22 23 23 24 25 24 24 24 24 24 23 22 22 22 22 22 23 24 25 26 27 29 30 30 30 29 29 29 29 29 28 27 26 26 25 25 24 23
18 18 18 17 17 17 18 19 19 18 18 19 19 19 19 19 18 18 17 18 19 15 14 17 17 16 15 15 15 16 16 18 20 22 23 24 24 23 23 24 25 25 25 26 26 25 24 24 24 23 23 23 22 22 24 25 26 27 29 30 30 30 29 30 30 30 29 28 28 27 26 26 25 25
19 19 18 18 18 18 18 18 18 18 18 19 19 19 18 18 19 20 18 15 16 16 15 17 19 17 16 16 14 14 15 16 18 19 21 23 24 25 25 24 25 26 25 26 27 27 27 25 24 24 23 22 22 22 22 24 26 26 27 29 29 30 30 30 30 30 30 29 29 28 28 27 26 26
19 20 19 19 19 19 19 18 18 19 19 20 20 19 19 19 19 19 20 18 13 12 14 17 18 17 17 17 15 14 15 16 16 17 19 21 22 23 24 24 25 26 27 28 28 27 27 26 24 23 23 22 23 23 22 23 25 26 27 28 28 29 29 29 29 29 30 30 30 29 29 28 27 27
20 21 21 20 20 19 19 19 19 18 19 19 19 18 18 18 18 17 18 18 17 15 13 13 13 15 17 18 17 15 15 16 16 16 16 18 20 21 22 23 23 21 22 24 25 25 25 24 24 24 24 24 24 24 24 24 24 25 26 28 28 28 28 28 28 28 28 29 29 29 29 28 27 27
21 22 22 22 21 21 20 20 19 18 18 18 18 18 17 17 17 17 16 16 16 15 15 14 14 15 15 15 15 15 14 14 16 18 17 18 20 20 19 19 20 19 19 20 21 23 23 24 26 26 26 26 24 24 25 25 24 24 25 27 28 28 28 28 28 27 27 28 28 28 28 28 27 27
21 22 23 22 21 21 22 22 22 21 21 21 21 20 19 17 17 17 16 15 14 14 14 13 14 15 15 15 14 13 13 14 17 19 19 18 19 17 15 14 15 17 20 21 22 22 22 23 26 26 27 28 26 23 24 25 25 25 25 26 27 28 29 29 28 28 27 27 27 27 27 27 27 26
21 22 22 22 21 21 22 23 22 22 22 21 21 21 20 19 18 18 17 16 15 14 14 13 13 13 13 14 14 13 14 15 16 16 15 15 15 13 11 13 15 15 16 19 22 23 20 19 22 24 26 28 26 24 25 25 25 25 25 26 26 27 28 29 29 29 28 28 27 27 27 27 26 26
21 22 22 22 21 21 21 21 21 21 20 20 20 20 20 20 20 19 19 18 17 16 15 15 15 13 13 15 16 15 15 16 16 14 12 10 11 10 8 8 10 12 12 14 19 23 21 18 20 22 25 26 25 24 25 24 23 24 25 26 27 27 28 29 29 29 29 28 28 28 27 27 26 26
21 22 23 23 23 22 22 21 21 21 20 20 21 21 21 21 21 20 20 20 20 19 18 17 17 16 16 17 17 16 16 16 16 14 11 9 10 12 11 9 10 13 13 12 16 20 21 19 20 22 25 27 28 28 28 28 26 24 25 25 26 26 28 29 29 29 29 28 28 28 28 27 27 26
22 23 23 24 23 22 22 22 22 22 21 21 21 21 20 20 20 19 19 19 20 21 21 21 20 20 19 19 19 18 17 17 17 14 12 11 12 14 15 15 15 15 14 14 15 17 19 19 20 23 25 26 29 31 31 31 29 28 28 28 27 27 27 28 28 28 28 28 28 28 28 28 28 27
23 24 24 24 24 23 22 22 22 23 22 22 22 21 21 20 20 19 19 18 18 19 20 22 23 22 22 23 23 21 20 19 18 15 14 14 15 16 17 17 17 16 16 16 13 13 18 20 19 23 26 25 27 29 29 30 30 31 32 32 31 29 27 26 25 25 26 26 27 28 28 28 27 27
24 25 25 25 24 23 23 23 23 23 22 22 21 21 21 21 21 21 20 19 19 19 20 21 23 23 23 24 25 24 23 22 20 18 17 16 14 15 17 17 17 17 19 19 15 12 18 22 20 23 27 26 26 27 26 27 28 29 31 32 31 30 28 26 26 26 25 25 25 27 28 28 27 27
23 23 23 24 24 24 24 24 23 22 22 21 20 20 21 21 21 22 21 20 20 21 21 22 24 24 24 24 24 24 24 24 24 22 20 16 13 13 13 14 16 17 18 19 19 17 20 22 20 22 24 24 25 26 26 26 26 27 28 29 30 31 30 30 29 28 27 26 25 25 27 28 28 27
23 23 24 24 25 25 25 24 22 22 21 20 20 20 21 21 21 22 22 20 20 20 21 22 22 22 22 22 23 24 24 25 25 24 20 17 15 13 10 9 14 18 18 19 20 20 21 22 21 21 21 22 23 24 25 27 27 27 27 27 28 29 30 31 30 29 28 27 27 26 26 27 27 27
23 23 23 23 23 23 23 21 20 19 18 17 16 17 19 19 20 20 20 20 20 19 20 20 19 18 19 19 21 22 23 24 25 25 24 22 19 16 12 11 13 17 19 20 19 18 19 21 22 21 19 20 23 25 26 26 27 27 27 27 27 28 29 29 29 29 28 28 28 27 26 26 26 27
21 21 21 21 21 20 18 17 16 16 15 14 14 16 17 18 19 19 19 20 20 20 19 19 19 20 20 20 21 22 22 22 23 25 27 26 24 20 18 17 13 11 15 19 19 19 19 20 21 19 14 11 15 22 25 26 27 28 28 27 27 28 29 29 29 29 29 29 28 28 27 26 26 26
20 20 20 19 18 17 16 16 16 16 14 15 18 21 20 17 18 21 23 24 24 23 23 23 23 24 24 24 24 24 24 22 22 24 26 27 27 25 23 22 18 14 15 18 19 20 22 20 20 22 18 11 9 13 18 21 24 25 26 26 26 27 27 27 28 28 29 29 29 28 27 26 26 27
20 21 21 20 19 18 18 18 18 18 20 22 26 28 28 26 26 28 30 30 29 26 26 26 25 24 24 24 24 23 23 22 23 24 24 25 27 29 27 25 22 20 21 21 20 21 22 19 17 19 19 16 13 13 14 16 18 21 22 22 23 24 25 26 27 27 28 28 28 28 27 26 26 28
20 21 22 22 21 21 21 21 23 26 29 31 33 34 34 34 34 33 32 33 32 29 26 25 24 24 23 23 23 23 23 22 22 22 23 25 27 30 31 30 27 24 23 23 23 24 24 21 19 17 15 13 14 15 15 15 17 19 19 21 22 23 24 25 26 26 27 27 27 27 27 27 27 28
21 22 23 23 23 24 26 29 32 34 34 35 36 37 37 36 34 32 30 30 30 29 27 26 25 25 24 23 23 23 24 24 24 24 24 25 27 28 30 32 32 31 30 27 26 26 24 21 20 18 15 13 12 12 12 14 15 16 17 20 21 21 23 24 25 25 25 25 26 25 26 26 27 26
21 22 24 25 27 29 31 33 35 35 36 36 36 35 34 32 30 28 27 26 25 26 26 27 27 26 25 24 25 25 25 26 26 27 26 25 25 26 27 29 30 32 32 32 31 30 27 25 24 21 18 17 14 11 11 14 16 16 17 17 18 19 21 23 24 24 24 24 24 24 25 26 27 27
23 24 25 26 26 28 30 32 33 34 34 34 34 33 33 32 32 30 29 27 25 24 24 25 26 27 27 27 27 27 27 27 27 28 27 25 23 23 23 25 27 28 30 30 31 32 30 30 30 26 22 21 20 17 16 16 17 18 18 17 17 18 19 21 22 21 22 23 23 23 25 26 27 30
24 24 24 23 25 28 30 32 33 35 36 36 35 35 34 35 35 32 30 29 27 25 24 24 25 26 27 28 27 26 27 27 27 26 27 27 25 23 21 22 24 26 28 30 31 32 31 32 33 30 26 25 24 23 22 20 19 20 20 19 18 16 16 19 22 21 20 23 25 24 23 24 25 30
25 26 27 28 30 32 32 32 32 32 33 32 30 29 28 28 28 27 27 28 28 27 26 25 26 26 26 25 25 24 24 25 25 26 27 27 26 24 22 21 22 25 27 29 31 31 31 31 32 32 29 26 25 26 26 25 23 21 20 20 19 16 14 16 20 22 23 23 24 24 23 23 25 30
31 34 34 34 34 31 29 29 29 27 26 26 25 25 25 24 24 25 27 28 29 30 29 28 27 26 25 24 23 23 23 23 25 26 27 27 26 24 22 20 19 20 22 24 27 28 29 29 31 32 31 30 29 27 25 24 24 22 20 21 21 20 19 18 18 21 24 23 22 24 25 25 26 31
34 34 31 28 27 25 23 23 23 22 22 22 23 23 22 22 22 23 24 25 26 28 28 27 26 26 25 25 24 23 22 23 25 26 26 26 25 24 22 20 19 20 19 19 21 23 25 28 30 31 31 31 30 28 23 19 21 23 22 21 20 20 22 21 20 20 23 24 23 23 25 26 28 30
31 28 25 23 22 21 21 21 20 19 19 19 20 20 20 21 21 21 22 22 23 24 25 26 26 26 26 25 23 22 21 22 24 24 24 25 24 23 21 20 19 20 20 19 19 19 21 23 25 26 26 26 26 28 27 23 22 24 24 22 21 21 21 22 21 20 22 25 26 22 22 26 29 30
27 23 21 21 21 20 20 19 19 18 17 17 17 17 18 19 19 21 22 23 22 21 22 24 25 25 25 24 22 22 22 22 22 22 22 22 21 21 21 20 20 20 20 19 19 19 20 21 21 19 18 18 18 22 27 29 27 26 23 21 21 22 21 21 23 22 21 23 23 21 19 23 27 30
22 19 18 19 18 18 17 17 16 16 16 16 16 16 16 17 18 21 22 20 18 18 19 19 20 21 22 23 21 21 22 21 21 21 21 20 19 19 19 19 20 20 20 20 19 20 20 20 19 15 10 9 9 10 15 22 26 25 23 21 21 21 21 21 22 23 22 23 24 23 21 21 24 29
19 16 16 16 16 16 16 16 16 15 16 17 18 18 17 17 19 22 23 22 22 22 20 20 20 20 21 21 21 21 20 20 20 20 20 20 19 17 16 16 17 18 19 20 20 21 19 18 18 16 10 6 7 7 7 11 14 15 17 18 20 21 20 18 18 20 22 24 26 27 26 25 27 30
18 17 16 16 16 16 16 16 17 17 17 18 18 18 19 20 22 24 24 25 26 24 20 19 20 21 21 21 21 21 20 20 21 20 20 20 18 15 13 13 13 16 19 22 22 20 16 14 15 17 14 8 6 6 6 5 5 3 7 12 15 18 17 15 15 18 20 21 21 20 21 23 25 29
18 19 19 17 17 17 17 18 20 21 20 18 18 18 20 22 24 25 24 23 24 23 21 20 21 22 21 22 23 22 21 20 19 19 20 19 18 16 14 13 12 13 17 22 24 21 16 16 20 23 20 13 8 7 5 3 5 2 2 6 9 13 15 15 14 15 17 19 17 13 13 14 15 20
17 17 18 17 17 17 18 19 20 20 19 19 19 21 22 24 25 25 23 22 23 23 23 23 23 23 23 23 23 22 22 21 20 20 20 19 18 19 17 15 15 15 15 18 20 18 16 17 21 22 20 16 12 9 6 6 7 4 4 6 6 8 11 13 14 12 13 17 18 15 16 17 17 19
17 16 16 16 16 16 16 16 17 18 18 20 22 23 24 24 24 23 23 24 24 24 24 23 23 23 24 24 22 21 21 21 20 21 21 20 20 21 19 17 16 15 13 12 14 16 15 16 18 20 20 17 13 9 7 7 6 5 10 12 10 6 7 8 12 13 14 19 21 19 17 19 23 25
16 15 15 16 16 16 16 17 18 18 19 20 21 21 22 23 24 24 24 25 25 25 23 22 22 22 23 24 24 22 22 22 21 21 21 20 19 19 18 18 17 16 15 14 13 13 13 13 14 17 17 16 14 9 5 5 6 7 11 15 15 12 9 4 3 10 15 19 21 19 16 17 17 19
15 15 15 15 15 16 16 16 17 17 18 19 19 20 22 25 25 25 24 25 27 28 25 22 21 21 22 24 24 23 23 23 23 23 22 20 18 18 18 17 17 18 18 16 12 12 14 13 11 11 12 13 12 9 10 11 13 13 13 15 19 21 19 16 13 12 13 13 14 15 18 19 16 17
15 15 15 15 15 15 16 16 16 17 18 19 20 22 23 24 24 24 25 26 27 26 24 22 21 20 21 22 23 22 23 23 23 24 23 21 20 19 18 18 18 17 15 13 11 12 14 14 12 11 11 11 13 16 17 16 16 17 16 16 19 22 24 24 23 21 19 14 9 7 12 18 22 27
14 14 14 14 14 15 15 15 15 16 17 19 21 23 23 22 24 25 27 26 24 22 21 22 21 20 20 19 19 20 22 23 23 23 23 22 22 20 19 19 19 16 12 12 11 11 12 10 9 10 12 16 19 21 21 19 19 21 22 22 23 24 26 29 32 34 33 27 18 14 16 23 30 37
Wind_Direction
296 293 290 287 283 280 277 273 272 267 260 255 255 253 243 224 227 270 269 261 266 259 247 233 231 234 239 246 246 241 243 249 250 247 246 246 248 252 255 255 252 250 251 253 256 259 260 261 261 260 260 259 259 258 258 258 255 252 252 252 253 254 255 255 257 258 259 260 262 263 265 265 265 266
292 291 291 293 291 289 287 285 285 281 271 260 255 255 251 239 232 243 263 268 269 273 267 249 242 243 241 240 241 242 246 250 249 244 242 244 248 252 255 257 256 252 251 253 256 258 259 260 259 258 258 258 258 257 257 256 254 251 250 250 250 251 253 254 255 256 257 259 260 261 263 263 264 265
295 293 292 293 293 292 290 289 289 284 274 262 255 254 252 243 237 240 252 268 263 268 274 263 254 256 257 250 243 242 245 245 242 241 240 242 247 248 249 256 258 255 253 254 257 258 259 259 258 257 256 256 256 256 255 254 251 249 248 249 249 249 250 252 253 255 256 257 257 258 260 260 260 262
298 295 292 289 288 290 288 284 281 276 268 258 249 244 243 241 240 241 242 249 265 268 271 272 268 263 262 259 246 240 241 239 237 239 242 244 248 248 249 253 255 255 256 257 258 261 261 260 258 257 256 254 253 253 253 252 248 246 246 247 248 247 248 249 251 253 255 256 255 256 256 256 257 259
297 294 293 292 289 290 289 284 281 278 276 272 261 247 236 233 236 238 237 237 259 269 268 269 269 265 259 251 241 237 240 243 243 243 246 247 248 249 250 251 253 254 256 258 259 260 262 261 258 256 255 254 252 251 251 251 249 246 244 245 246 246 246 247 249 251 253 255 255 255 255 255 255 257
295 294 292 292 291 288 284 280 279 278 277 276 275 269 255 241 232 228 228 230 243 266 271 269 268 267 262 251 241 241 247 252 251 247 248 250 250 251 250 249 249 249 251 255 258 260 261 260 257 254 254 253 252 251 249 250 249 247 246 246 246 247 247 247 248 250 251 253 254 254 254 254 255 256
300 300 298 295 291 287 286 286 287 288 284 278 276 276 276 271 259 241 231 229 232 249 265 270 270 270 266 257 249 250 254 255 252 250 250 250 251 252 251 249 250 250 252 255 257 258 259 258 256 255 255 254 253 252 251 250 250 249 248 248 247 246 246 246 248 249 250 251 252 253 253 253 255 256
302 303 303 299 293 291 292 292 291 290 289 287 286 285 284 286 286 276 260 243 232 233 251 263 264 267 271 268 260 255 254 252 252 254 255 253 252 251 251 252 254 255 255 255 255 254 255 255 256 258 259 255 251 252 252 251 250 250 249 249 248 247 246 246 246 248 250 251 252 252 253 253 254 256
302 302 301 297 297 297 295 291 288 286 286 289 292 293 293 293 291 289 289 277 245 229 235 248 254 262 269 271 265 257 254 254 256 260 261 260 258 255 253 254 254 253 253 255 257 256 255 255 256 258 260 256 252 252 253 252 251 250 250 249 248 248 247 246 247 248 249 250 252 252 253 253 254 256
305 302 299 295 293 293 291 288 287 288 290 293 296 297 299 302 303 302 306 310 296 259 243 244 250 258 263 266 265 260 255 251 251 257 264 267 264 258 254 253 253 253 255 258 259 258 257 257 255 255 258 258 255 252 251 252 252 251 250 249 249 249 249 248 248 248 249 250 251 252 253 253 255 256
306 303 300 296 292 289 286 285 285 288 290 292 294 296 299 304 309 311 309 310 312 305 291 276 268 265 261 258 257 258 259 254 250 253 258 264 265 260 255 252 253 255 258 261 260 257 258 258 256 256 257 258 258 255 253 251 252 252 251 249 249 249 249 249 248 248 248 249 250 251 253 254 254 255
303 300 298 296 293 289 285 283 283 286 289 291 291 292 295 298 300 302 301 301 302 304 302 301 297 294 288 276 266 262 258 250 251 253 251 254 261 263 261 257 255 257 258 256 255 255 255 254 253 256 259 259 257 255 255 252 250 251 251 251 250 249 248 248 247 247 247 247 249 250 252 253 254 256
298 297 297 295 292 289 286 284 283 283 282 282 283 284 286 287 287 288 289 288 288 287 287 288 290 293 294 289 283 274 261 253 257 259 255 253 257 260 263 263 260 262 263 258 255 257 258 257 254 254 257 258 256 254 256 253 249 248 248 249 250 249 248 247 247 246 246 246 248 249 251 252 254 256
297 297 296 294 292 290 288 286 285 284 281 279 280 282 282 281 281 282 282 281 279 276 275 274 274 275 276 278 279 279 277 275 274 268 259 256 259 262 267 271 269 267 265 264 262 261 261 262 261 256 253 253 254 255 256 255 252 249 249 249 249 248 248 248 247 247 246 247 248 248 250 251 252 254
297 298 297 297 296 295 293 291 289 287 286 285 284 284 283 282 280 277 275 276 276 275 274 273 270 267 267 272 274 275 277 277 278 278 273 269 274 278 274 269 269 266 260 258 260 262 262 259 257 256 252 249 247 250 255 259 260 258 255 252 251 250 249 248 248 249 248 248 248 248 249 250 250 251
294 295 295 295 296 295 294 293 293 292 290 289 288 286 285 284 281 278 276 274 273 273 274 275 273 270 270 273 272 272 273 274 276 279 280 274 269 268 264 256 258 264 262 254 254 262 266 262 257 256 256 253 252 252 256 259 260 259 258 256 255 253 250 249 249 249 249 250 249 249 249 249 248 249
293 292 291 290 290 290 290 290 291 292 292 292 291 291 290 287 283 283 282 279 275 273 271 269 267 267 269 270 270 270 271 275 275 270 267 262 247 242 249 256 261 263 261 258 260 265 267 265 262 262 264 263 261 259 259 258 254 252 253 257 261 260 254 250 249 248 249 250 249 250 249 248 248 248
293 290 289 288 286 286 287 287 288 289 292 295 296 296 296 293 290 289 286 283 281 277 273 270 269 270 270 269 270 270 270 274 276 273 267 260 250 245 249 255 260 260 257 257 260 265 266 264 260 261 265 268 267 265 263 259 255 252 252 255 260 259 254 251 251 250 249 249 248 248 248 247 247 248
290 288 287 288 289 290 289 288 289 292 295 298 298 296 294 293 292 291 288 284 280 278 276 274 274 277 277 275 274 273 271 270 274 279 277 268 259 257 258 258 259 261 261 258 249 250 264 264 257 258 264 268 269 268 265 261 259 258 256 256 255 252 250 252 255 254 251 250 248 247 247 247 246 247
290 289 289 292 294 295 294 294 295 296 297 298 298 297 295 294 292 290 288 286 283 280 279 277 276 276 277 279 280 278 276 273 273 276 277 272 259 252 256 260 260 260 262 256 242 239 255 259 254 256 261 263 263 263 261 261 261 261 260 258 253 249 247 250 254 254 253 251 249 247 248 247 246 246
290 291 292 294 296 297 297 297 297 296 296 296 297 297 296 295 293 290 289 287 285 283 282 281 279 278 277 279 280 280 279 277 274 269 266 263 256 247 245 254 256 255 257 253 241 237 246 253 253 256 260 260 259 258 257 257 258 260 261 260 256 251 248 248 250 252 252 250 248 246 247 247 245 244
295 295 294 295 297 298 298 297 296 295 298 303 306 304 301 298 293 291 291 290 290 289 286 285 284 283 281 277 276 278 277 274 270 263 256 254 254 249 244 247 254 255 254 250 244 239 244 249 250 253 259 261 258 256 256 256 256 257 260 260 257 253 250 249 249 249 250 249 246 245 245 245 243 240
299 298 298 300 300 299 300 301 301 302 306 314 317 316 313 304 295 294 296 297 298 298 294 292 290 288 286 281 276 277 279 277 271 264 259 255 252 250 251 250 250 253 251 248 244 242 246 249 246 245 250 259 259 255 254 255 254 254 256 257 256 254 252 251 250 249 249 249 247 243 243 243 239 234
298 298 299 302 301 300 303 305 305 306 308 314 316 315 313 304 295 296 299 299 300 299 296 293 290 287 285 282 277 273 273 274 271 267 264 258 250 247 248 247 244 244 247 248 244 243 245 245 242 239 236 239 256 258 255 255 254 254 254 253 254 257 256 253 252 250 249 249 247 243 242 241 236 230
295 297 299 301 302 303 303 302 301 300 302 306 307 305 303 298 294 295 295 295 296 295 291 288 285 282 281 279 276 271 266 265 265 265 264 259 251 246 243 242 243 245 247 248 247 248 251 251 248 242 235 235 247 257 260 259 255 254 254 251 251 255 257 255 253 250 248 247 245 242 239 237 234 229
296 298 300 300 300 298 297 296 298 300 301 302 301 300 298 297 295 294 292 290 290 287 283 282 279 276 276 275 274 270 265 262 261 261 260 257 252 248 245 243 242 244 246 247 246 249 254 257 256 249 239 237 246 252 256 259 258 255 253 251 250 251 255 256 252 249 247 244 242 242 239 235 232 226
298 298 298 297 295 294 295 297 299 300 300 300 299 298 297 295 294 292 288 286 282 276 273 273 273 271 270 269 268 268 266 263 260 258 258 257 256 253 251 249 247 246 248 249 248 250 253 256 257 253 246 242 246 250 248 249 254 253 246 247 252 252 251 252 250 248 247 246 245 243 237 232 228 219
298 296 296 296 296 296 298 300 301 300 299 297 297 296 295 294 293 289 283 280 276 270 266 264 263 263 264 264 263 264 264 263 263 260 257 256 257 258 257 255 253 251 250 250 251 252 253 254 257 257 252 247 245 249 249 246 249 249 244 246 251 250 247 246 246 246 246 246 246 240 231 226 221 211
295 295 296 297 296 297 299 300 300 298 296 294 292 291 290 289 285 280 276 274 272 266 260 257 257 259 260 260 261 262 263 262 262 261 258 254 254 256 257 256 254 252 251 251 252 253 251 251 253 253 251 248 245 246 251 252 250 251 250 246 245 246 244 239 238 239 239 239 241 238 232 227 218 209
297 297 297 295 294 297 300 301 299 296 293 291 289 288 287 284 279 274 269 266 264 259 256 255 256 258 259 259 261 263 263 260 258 258 256 252 248 247 246 246 246 248 251 252 253 253 250 249 250 249 247 247 247 246 249 254 254 253 252 248 245 247 244 234 231 230 229 232 237 238 235 231 222 213
297 296 294 293 293 295 297 298 296 293 290 289 287 284 282 279 276 271 266 263 258 253 253 255 258 259 259 259 260 261 261 259 258 258 255 250 245 241 239 240 243 246 248 251 252 252 249 246 246 245 242 241 243 244 246 250 252 251 250 246 242 241 241 233 228 227 226 226 231 231 227 224 221 216
296 294 294 294 294 294 293 292 291 287 284 282 280 278 276 274 273 271 268 263 256 250 249 253 258 260 260 258 259 262 263 262 261 259 255 250 245 240 236 238 244 246 247 247 249 249 248 246 245 243 239 237 240 243 244 247 249 249 248 246 242 241 244 240 231 228 227 223 220 220 220 219 218 215
298 296 294 293 293 291 288 286 286 284 281 279 278 277 276 275 274 271 267 261 254 248 245 247 251 255 256 256 257 260 264 264 263 260 255 249 244 239 235 235 240 245 247 246 245 245 245 245 245 244 240 239 241 242 243 248 251 249 248 248 246 244 244 241 234 229 225 222 218 214 212 217 219 217
297 293 290 289 288 286 284 284 284 282 282 281 280 281 280 278 277 277 274 271 267 258 249 246 248 250 252 254 255 255 259 264 267 265 259 251 243 237 234 235 239 242 244 245 244 242 240 239 238 238 237 239 242 243 240 241 246 249 249 248 247 246 244 241 237 231 225 223 222 214 207 212 219 219
290 287 286 284 285 285 283 281 280 280 281 281 281 282 282 278 277 278 276 276 278 275 263 253 249 248 249 251 252 253 257 262 266 268 266 261 251 242 237 237 239 239 241 242 241 240 239 236 229 225 231 238 243 245 242 239 242 248 251 250 249 247 244 239 233 228 224 224 222 214 208 211 214 215
283 279 276 274 277 281 280 278 278 279 279 279 280 281 280 278 278 277 275 277 287 295 289 273 258 250 250 252 252 254 256 258 261 264 267 267 263 256 250 247 246 243 240 240 240 240 240 230 214 205 218 235 236 244 246 240 238 242 247 252 255 251 245 240 235 231 230 230 225 217 213 211 209 209
277 269 266 265 270 275 276 277 278 277 277 280 283 281 279 278 278 277 280 287 294 296 294 285 271 260 255 256 256 255 255 255 257 259 262 262 261 260 258 257 260 260 255 248 242 239 235 223 206 196 198 216 230 238 234 218 217 226 237 246 253 254 250 245 237 232 232 232 228 223 217 212 208 208
281 273 268 266 268 270 269 270 273 276 278 280 280 278 276 277 279 281 286 293 295 293 289 285 278 268 259 256 254 252 251 252 253 251 250 252 255 255 252 250 256 265 267 261 253 242 232 223 215 210 209 211 224 236 225 181 160 193 239 245 250 255 255 250 242 237 234 231 231 229 220 213 208 204
291 284 277 271 269 272 272 273 277 279 278 276 274 275 278 280 284 287 289 291 292 292 291 288 281 273 264 257 251 248 248 249 249 246 244 246 247 246 244 243 244 251 258 261 258 249 233 222 222 222 223 223 222 233 235 178 130 130 266 274 269 260 255 255 254 246 234 228 225 213 194 191 190 188
299 293 287 282 280 281 279 278 279 278 276 276 278 282 285 286 287 289 291 295 296 294 292 288 281 275 271 262 250 244 245 246 247 247 245 244 243 240 235 233 236 240 245 254 259 256 243 232 227 225 227 232 234 234 213 159 134 99 33 14 337 287 267 263 258 242 222 213 202 176 156 149 146 152
302 298 296 293 293 293 289 286 285 282 283 288 291 292 293 293 293 295 298 300 300 297 293 288 280 271 268 262 252 245 245 246 246 246 245 243 243 241 234 228 230 236 238 245 257 264 265 260 248 236 229 222 210 189 154 132 117 65 47 46 33 356 318 286 256 232 212 195 179 159 141 137 138 139
301 297 297 296 298 299 299 300 300 298 298 299 300 302 306 309 309 309 308 307 306 303 298 292 282 271 264 261 257 252 249 248 247 247 246 243 240 239 236 229 225 228 231 233 236 246 258 266 257 243 232 217 198 176 134 113 117 98 75 66 63 61 54 44 195 191 181 173 165 150 133 128 129 132
301 297 297 299 302 303 303 305 306 304 303 303 304 308 312 312 310 308 307 306 305 303 301 297 289 279 270 263 256 251 248 248 248 249 248 243 237 237 239 233 225 227 232 230 223 228 242 251 248 237 229 218 197 157 118 111 114 104 89 79 78 82 84 85 96 119 134 143 149 150 148 150 153 153
304 302 301 301 302 302 302 303 303 301 301 303 307 309 309 305 302 301 303 303 302 303 307 306 298 290 281 268 257 249 246 246 245 246 246 243 238 237 237 236 233 232 232 230 224 223 229 231 226 217 207 187 157 133 120 118 115 104 95 89 86 87 89 90 89 87 85 84 91 119 136 145 150 150
307 304 300 298 299 300 300 300 300 300 301 303 306 306 304 302 301 303 307 311 313 316 320 316 309 305 299 285 268 255 248 245 244 243 242 241 240 237 234 236 237 232 225 227 220 194 175 172 175 169 148 127 120 118 115 113 111 106 99 92 88 86 87 88 87 84 79 78 84 98 105 113 122 127
Height
788 787 787 786 786 785 785 785 785 784 784 784 785 785 785 786 789 790 788 784 780 779 779 779 779 780 780 780 780 780 780 780 781 782 783 783 784 784 785 785 785 786 786 786 787 787 788 788 789 789 790 790 791 792 793 794 795 796 796 797 798 798 799 800 801 802 803 804 804 805 805 806 806 807
787 786 786 785 784 784 783 783 782 782 783 783 783 783 783 783 785 786 787 784 779 777 778 777 777 778 778 778 778 778 778 778 779 780 780 780 781 781 782 782 782 783 783 784 784 784 785 785 785 786 786 787 788 789 790 791 792 793 793 794 795 796 797 797 798 799 800 800 801 802 802 803 804 804
786 785 785 784 783 783 782 781 781 781 780 780 780 780 780 781 781 781 783 783 778 776 776 776 776 776 776 776 775 775 776 777 777 777 777 778 778 779 779 779 780 780 781 781 781 781 782 782 782 783 783 783 784 785 786 787 788 789 790 791 792 793 794 795 795 796 797 797 798 799 799 800 801 802
785 784 784 783 782 782 781 780 780 778 778 777 776 777 777 778 778 778 779 779 776 775 775 775 774 774 774 773 773 773 774 774 775 774 775 775 776 776 776 776 777 778 778 778 778 779 779 779 780 780 780 780 781 782 782 784 785 786 787 788 789 790 791 792 793 793 794 794 795 796 796 797 798 799
784 783 782 782 781 780 780 778 778 777 776 775 773 773 773 773 774 775 775 775 774 773 773 773 773 772 772 771 771 772 771 771 772 772 772 773 773 774 774 774 775 775 775 775 776 776 776 776 777 777 777 777 777 778 779 780 781 782 783 784 785 787 788 789 790 790 791 791 792 793 793 794 795 796
783 782 781 781 780 779 779 777 777 775 774 774 772 772 771 770 770 771 771 772 772 771 770 771 771 770 770 770 769 770 770 769 770 770 770 770 771 771 771 772 772 772 773 772 772 773 773 773 774 774 774 774 774 775 775 776 777 778 779 780 782 783 784 785 786 787 788 788 789 790 790 791 792 793
781 781 780 780 779 778 777 776 776 775 773 772 771 770 770 769 768 768 769 769 769 769 768 769 769 768 768 768 767 767 768 768 768 768 768 768 769 769 769 769 769 769 770 770 770 770 770 770 771 771 771 771 771 772 772 773 773 774 776 777 778 779 780 781 782 783 784 785 786 786 787 788 789 789
780 780 779 779 778 777 776 775 774 773 772 771 770 769 768 768 767 767 767 766 766 766 766 766 767 767 766 766 765 765 765 766 766 766 766 766 766 766 766 766 766 766 767 767 767 767 767 767 768 768 769 769 769 769 769 770 770 771 772 773 774 775 776 778 779 780 781 782 782 783 784 785 786 786
780 779 778 778 777 776 776 775 774 772 771 770 769 769 768 767 767 766 765 765 764 764 764 764 764 765 765 764 764 763 763 763 764 764 764 763 763 763 763 763 763 763 764 764 764 765 765 765 765 766 766 766 766 767 767 767 768 768 769 770 771 772 773 774 775 776 777 778 779 780 781 782 782 783
779 778 777 777 776 775 775 774 773 772 771 770 769 768 767 767 766 765 764 764 763 763 763 763 762 762 762 762 762 762 761 761 761 762 762 761 761 761 761 761 761 761 761 761 762 762 762 763 763 763 764 764 764 764 764 764 765 765 766 767 768 769 770 771 772 773 774 775 776 777 778 779 780 780
777 777 776 775 774 774 773 772 772 771 770 770 769 768 767 766 766 765 764 763 763 763 763 762 761 760 760 760 760 760 760 760 759 759 760 759 759 759 759 759 758 758 759 760 759 759 759 760 760 760 761 761 761 761 761 761 762 762 763 764 765 766 767 768 769 770 771 772 773 774 775 776 777 777
776 775 774 773 772 772 771 770 770 770 769 768 768 767 767 766 765 764 764 763 763 762 762 762 761 760 759 759 759 758 758 758 757 757 757 756 756 756 756 756 756 756 757 756 756 756 756 756 756 757 757 758 758 758 758 758 759 759 760 761 762 763 764 764 765 766 767 768 769 771 772 773 774 774
774 773 772 771 770 769 768 768 768 767 767 766 766 765 765 765 765 764 764 763 762 762 761 760 760 759 758 758 757 757 756 756 756 755 755 754 754 754 754 754 754 754 754 753 753 753 753 753 753 753 753 753 754 755 755 755 755 755 757 757 758 759 760 761 761 762 763 764 765 767 768 769 770 771
771 771 770 769 768 767 765 765 764 764 764 763 763 763 763 763 763 762 762 762 761 761 760 759 759 758 757 756 756 755 755 755 755 754 754 754 753 752 751 751 752 752 752 752 751 751 751 751 750 749 749 749 750 751 751 751 752 753 753 754 754 755 756 757 758 759 760 761 762 763 764 765 767 768
769 768 768 767 766 764 763 762 762 761 761 761 761 761 760 760 760 760 760 759 759 758 758 757 757 756 755 754 754 753 753 753 753 752 752 753 753 753 752 751 750 749 749 749 749 748 748 749 747 746 746 746 747 747 747 748 749 750 750 751 751 752 753 754 755 756 757 758 758 760 761 762 763 765
767 766 766 765 764 763 761 761 760 759 759 758 758 758 758 757 757 757 757 757 756 756 755 755 754 754 753 752 752 752 751 751 751 750 750 750 751 753 753 750 748 747 747 747 746 745 745 746 745 743 743 743 744 744 744 745 746 746 747 748 748 749 750 750 752 752 753 754 755 756 757 758 760 761
765 764 763 762 761 760 759 759 758 757 756 756 755 755 755 754 754 754 754 754 753 753 753 752 751 751 751 750 750 750 750 749 749 748 748 748 748 750 750 748 747 746 746 746 745 743 743 744 743 741 741 741 741 740 740 741 742 743 743 744 745 746 747 747 748 749 750 751 752 753 754 755 756 758
763 762 761 759 758 758 757 756 756 755 754 754 753 753 752 752 752 751 751 751 750 750 750 749 748 748 749 748 747 748 748 748 747 746 746 746 746 746 746 745 745 745 745 745 744 742 741 741 741 739 738 738 737 736 736 737 738 739 739 741 741 742 743 744 745 746 746 747 748 749 750 752 753 754
760 759 758 757 756 755 754 754 753 753 752 752 751 750 750 750 749 749 749 748 748 747 746 745 745 744 745 745 745 745 745 745 745 745 744 743 743 744 744 743 742 742 741 742 742 740 738 739 739 736 735 735 734 733 733 733 733 735 736 737 738 739 739 740 741 742 743 744 745 746 747 748 750 751
757 756 756 754 753 753 752 752 751 751 750 749 749 748 747 747 747 746 746 746 745 744 743 742 742 741 741 742 741 742 742 742 742 743 742 742 742 742 742 741 740 739 738 739 739 737 736 736 736 734 733 733 731 730 730 730 730 731 732 733 734 734 735 736 737 738 739 740 741 742 743 745 746 748
755 754 753 752 752 751 750 750 749 748 748 747 747 746 745 745 744 743 743 743 742 742 741 740 739 738 738 738 738 739 739 739 740 740 739 739 740 740 739 738 737 736 735 735 736 734 733 732 732 732 731 730 729 728 728 728 728 728 728 729 729 730 731 733 734 735 736 737 738 739 740 741 743 744
752 752 751 750 750 749 748 747 747 746 746 745 745 744 743 743 741 741 741 740 739 739 738 737 737 736 735 735 735 735 735 735 736 736 735 736 737 736 735 735 734 733 732 732 733 731 729 729 729 728 728 727 726 725 725 725 725 725 725 725 726 727 728 729 730 731 732 733 734 735 736 738 739 741
751 750 749 748 748 747 746 745 745 744 744 743 743 743 742 741 740 739 739 738 737 736 735 734 734 733 733 732 731 731 731 731 732 732 732 733 733 732 732 732 732 730 728 729 730 728 726 726 726 725 725 724 723 722 722 722 722 722 722 722 723 723 725 726 727 728 728 729 730 731 733 734 736 737
749 748 747 747 746 745 744 744 743 743 742 742 742 741 741 740 738 737 737 736 735 734 733 732 731 730 729 729 728 728 727 727 728 728 728 728 728 728 728 728 728 726 723 725 727 725 723 723 722 722 722 722 720 719 719 719 719 719 719 720 720 720 721 722 723 723 724 725 727 728 729 731 733 734
748 747 746 745 744 743 742 742 741 740 740 740 739 739 738 737 736 735 734 733 732 732 730 728 727 726 725 725 724 724 723 723 723 723 723 723 723 724 724 724 723 721 720 722 724 722 721 720 720 719 719 718 718 717 717 717 716 716 717 717 718 718 718 719 719 720 721 722 723 724 725 727 729 730
747 745 744 743 742 741 740 739 738 738 737 736 735 734 734 733 732 732 731 729 729 728 727 725 723 722 722 721 720 720 719 719 719 719 719 719 719 719 719 719 718 717 716 719 720 720 719 718 717 717 716 715 715 716 715 715 714 714 714 715 715 715 715 715 716 716 717 718 719 720 722 724 726 728
745 744 742 741 740 739 737 736 735 734 733 732 730 730 729 728 728 727 726 725 724 723 722 721 719 718 717 717 716 716 715 715 716 715 715 715 715 714 714 714 714 713 713 715 716 716 716 716 715 715 714 714 714 713 713 712 712 712 712 712 712 713 713 712 713 713 714 715 716 718 719 721 723 726
743 742 740 739 737 735 734 732 731 730 729 727 726 725 725 724 724 723 721 720 720 718 717 716 714 713 712 712 711 711 711 711 711 711 711 711 711 710 710 710 710 710 710 711 711 712 713 713 712 712 712 711 711 711 710 710 710 710 710 709 710 710 710 710 710 710 711 712 713 714 716 717 720 723
740 738 737 735 734 732 731 729 728 726 725 723 722 721 721 720 719 718 717 717 716 713 711 710 708 707 706 706 706 707 707 707 707 707 707 707 707 707 707 707 706 706 706 707 707 708 709 709 709 709 709 708 708 708 708 707 707 708 708 708 707 707 707 708 708 709 709 709 710 711 712 714 717 719
737 735 733 732 730 729 727 727 725 722 720 719 717 716 716 715 714 713 712 711 710 708 706 704 703 702 701 701 702 702 702 702 702 703 703 703 703 703 703 703 702 702 703 703 703 704 704 705 705 705 705 705 704 704 705 705 705 705 705 705 705 705 705 705 706 707 707 707 707 708 710 712 714 716
734 732 730 728 727 725 724 723 721 718 716 714 712 711 710 710 708 707 707 705 704 703 701 700 699 698 697 697 698 698 698 698 698 698 699 698 698 698 699 699 698 698 698 699 699 700 700 700 701 701 701 701 700 700 701 702 701 701 702 702 702 702 702 702 703 704 705 705 705 706 707 709 711 713
730 727 725 724 722 721 719 718 716 714 712 710 708 707 706 705 704 702 701 700 698 697 697 696 695 695 694 694 694 694 694 693 693 694 694 693 693 694 695 694 694 694 695 695 695 696 696 696 696 696 696 697 696 697 698 698 698 698 698 698 698 698 698 699 700 701 703 704 703 704 704 705 706 708
725 723 721 719 718 716 715 713 711 710 708 706 705 703 702 701 700 698 696 694 692 692 692 692 691 691 691 690 690 690 690 689 689 689 689 689 690 690 690 690 690 691 691 691 691 692 691 692 692 692 693 693 693 694 695 695 695 695 695 695 695 694 695 695 696 698 700 701 701 701 701 702 703 704
721 719 717 716 714 713 712 710 708 707 705 703 702 700 699 698 696 694 693 691 689 688 688 687 687 687 687 686 686 686 686 686 686 686 685 685 685 686 686 686 686 687 687 687 687 688 688 688 689 689 690 691 692 692 693 693 692 692 691 692 692 691 691 692 693 695 696 697 697 698 699 699 699 701
717 716 714 713 711 710 709 707 706 704 702 701 699 698 696 695 693 692 690 688 687 686 684 684 683 683 683 683 683 682 683 683 683 683 683 682 682 682 682 682 682 683 683 683 684 685 685 685 686 687 688 689 690 690 689 690 689 688 687 688 689 689 689 689 690 691 693 694 694 695 697 697 697 698
714 712 711 709 708 707 705 704 703 702 700 699 697 696 694 692 690 689 687 685 684 683 682 681 681 681 680 680 680 679 680 680 681 681 680 680 679 679 679 679 679 679 680 680 681 682 682 682 682 684 686 688 688 687 686 686 685 684 684 686 687 687 687 687 687 688 689 691 692 692 692 693 693 695
710 709 708 706 705 703 702 701 700 699 698 697 695 694 692 690 688 686 685 683 682 681 680 679 678 678 678 678 677 676 676 676 677 677 676 676 676 676 676 677 677 678 678 677 678 678 679 679 679 680 683 685 686 685 682 681 681 681 682 684 684 684 684 684 685 685 686 688 688 687 687 688 689 690
707 706 705 703 701 700 699 698 698 697 695 694 693 691 689 687 685 684 682 681 680 679 678 677 675 675 674 674 674 674 673 673 673 672 672 672 673 673 673 673 673 675 676 677 676 676 676 677 677 678 680 680 681 680 680 679 680 681 681 681 681 681 682 682 682 683 684 685 686 685 685 686 687 688
705 704 702 700 699 698 696 696 695 694 693 691 690 688 686 684 682 681 680 679 677 676 675 673 672 671 671 670 670 670 670 670 669 668 668 668 669 669 669 669 669 671 674 676 676 674 673 673 674 675 676 675 675 675 676 677 679 680 680 679 679 679 680 680 681 681 682 683 684 684 685 687 688 689
703 702 700 698 696 695 694 693 692 691 690 689 687 685 684 682 680 678 677 676 675 673 671 670 668 667 666 666 666 665 665 665 665 665 665 665 665 665 665 666 666 668 670 673 673 672 670 670 670 671 673 673 672 672 672 674 678 680 679 679 679 678 678 678 679 679 680 681 682 683 684 686 688 691
702 700 698 697 695 694 693 692 691 689 688 686 684 682 681 679 677 676 674 673 671 669 668 666 665 663 662 661 662 662 661 661 661 661 661 661 661 661 661 662 663 664 666 667 668 669 669 670 670 670 670 669 669 669 671 674 678 680 680 680 679 677 676 676 677 677 678 679 680 682 684 686 687 690
700 698 696 695 694 693 692 690 689 688 686 684 682 680 679 677 675 673 671 669 667 665 664 662 660 659 658 657 658 658 658 657 657 657 657 657 657 657 658 659 659 661 662 662 663 666 669 670 670 669 668 666 666 667 670 674 678 680 681 680 679 678 676 676 676 676 677 679 679 680 683 686 689 691
698 696 695 694 693 692 690 689 688 686 685 683 681 679 677 676 673 671 669 667 664 662 660 658 656 655 654 653 653 654 653 653 652 652 652 652 653 653 654 655 656 657 658 658 659 662 664 666 666 666 666 666 665 666 670 674 677 679 680 681 680 679 678 678 678 678 679 680 681 680 680 681 683 687
696 695 694 693 691 690 689 688 687 686 684 682 680 678 676 674 672 669 667 665 662 659 656 654 652 651 650 650 649 649 649 649 649 648 648 648 649 649 650 651 653 654 656 656 656 657 659 660 661 661 662 664 664 666 670 674 676 678 681 681 681 682 681 680 680 681 682 683 684 683 683 681 680 683
695 694 693 691 690 689 688 687 686 684 683 681 679 677 675 672 670 667 665 662 660 657 654 652 649 648 647 646 645 644 644 644 644 645 645 646 646 647 647 649 650 651 652 653 654 655 656 657 658 659 661 663 664 667 671 674 676 679 682 683 684 684 684 684 684 684 686 689 689 687 687 688 689 690